Time,TemperatureF,DewpointF,PressureIn,WindDirection,WindDirectionDegrees,WindSpeedMPH,WindSpeedGustMPH,Humidity,HourlyPrecipIn,Conditions,Clouds,dailyrainin,SoftwareType,DateUTC
2013-10-05 00:44:00,71.0,-99.9,30.06,South,183,7.0,7.0,-999,0.00,,,-99.99,,2013-10-05 04:44:00,
2013-10-05 00:52:00,71.0,-99.9,30.06,South,183,9.0,9.0,-999,0.00,,,-99.99,,2013-10-05 04:52:00,
2013-10-05 01:43:00,71.0,-99.9,30.06,South,183,9.0,9.0,-999,0.00,,,-99.99,,2013-10-05 05:43:00,
2013-10-05 01:52:00,70.0,-99.9,30.06,South,183,8.0,11.0,-999,0.00,,,-99.99,,2013-10-05 05:52:00,
2013-10-05 02:43:00,70.0,-99.9,30.06,South,183,8.0,11.0,-999,0.00,,,-99.99,,2013-10-05 06:43:00,
2013-10-05 02:52:00,70.0,-99.9,30.06,South,183,8.0,10.0,-999,0.00,,,-99.99,,2013-10-05 06:52:00,
2013-10-05 03:42:00,70.0,-99.9,30.06,South,183,8.0,10.0,-999,0.00,,,-99.99,,2013-10-05 07:42:00,
2013-10-05 03:52:00,70.0,-99.9,30.06,South,183,8.0,11.0,-999,0.00,,,-99.99,,2013-10-05 07:52:00,
2013-10-05 04:42:00,70.0,-99.9,30.06,South,183,8.0,11.0,-999,0.00,,,-99.99,,2013-10-05 08:42:00,
2013-10-05 04:52:00,70.0,-99.9,30.06,South,183,-999.0,12.0,-999,0.00,,,-99.99,,2013-10-05 08:52:00,
2013-10-05 05:43:00,70.0,-99.9,30.06,South,183,-999.0,12.0,-999,0.00,,,-99.99,,2013-10-05 09:43:00,
2013-10-05 05:52:00,71.0,-99.9,30.07,South,183,-999.0,7.0,-999,0.00,,,-99.99,,2013-10-05 09:52:00,
2013-10-05 06:43:00,71.0,-99.9,30.07,South,183,-999.0,7.0,-999,0.00,,,-99.99,,2013-10-05 10:43:00,
2013-10-05 06:52:00,69.0,-99.9,30.08,South,183,7.0,7.0,-999,0.00,,,-99.99,,2013-10-05 10:52:00,
2013-10-05 07:43:00,69.0,-99.9,30.08,South,183,7.0,7.0,-999,0.00,,,-99.99,,2013-10-05 11:43:00,
2013-10-05 07:52:00,69.0,-99.9,30.09,South,183,5.0,7.0,-999,0.00,,,-99.99,,2013-10-05 11:52:00,
2013-10-05 08:42:00,69.0,-99.9,30.09,South,183,5.0,7.0,-999,0.00,,,-99.99,,2013-10-05 12:42:00,
2013-10-05 08:52:00,70.0,-99.9,30.09,South,183,-999.0,5.0,-999,0.00,,,-99.99,,2013-10-05 12:52:00,
2013-10-05 09:42:00,70.0,-99.9,30.09,South,183,-999.0,5.0,-999,0.00,,,-99.99,,2013-10-05 13:42:00,
2013-10-05 09:52:00,71.0,-99.9,30.10,South,183,5.0,6.0,-999,0.00,,,-99.99,,2013-10-05 13:52:00,
2013-10-05 10:42:00,71.0,-99.9,30.10,South,183,5.0,6.0,-999,0.00,,,-99.99,,2013-10-05 14:42:00,
2013-10-05 10:52:00,74.0,-99.9,30.10,South,183,6.0,8.0,-999,0.00,,,-99.99,,2013-10-05 14:52:00,
2013-10-05 11:44:00,74.0,-99.9,30.10,South,183,6.0,8.0,-999,0.00,,,-99.99,,2013-10-05 15:44:00,
2013-10-05 11:52:00,72.0,-99.9,30.11,South,183,8.0,12.0,-999,0.00,,,-99.99,,2013-10-05 15:52:00,
2013-10-05 12:43:00,72.0,-99.9,30.11,South,183,8.0,12.0,-999,0.00,,,-99.99,,2013-10-05 16:43:00,
2013-10-05 12:52:00,71.0,-99.9,30.10,South,183,10.0,13.0,-999,0.00,,,-99.99,,2013-10-05 16:52:00,
2013-10-05 13:42:00,71.0,-99.9,30.10,South,183,10.0,13.0,-999,0.00,,,-99.99,,2013-10-05 17:42:00,
2013-10-05 13:52:00,69.0,-99.9,30.08,South,183,12.0,15.0,-999,0.00,,,-99.99,,2013-10-05 17:52:00,
2013-10-05 14:42:00,69.0,-99.9,30.08,South,183,12.0,15.0,-999,0.00,,,-99.99,,2013-10-05 18:42:00,
2013-10-05 14:52:00,69.0,-99.9,30.08,South,183,11.0,15.0,-999,0.00,,,-99.99,,2013-10-05 18:52:00,
2013-10-05 15:42:00,69.0,-99.9,30.08,South,183,11.0,15.0,-999,0.00,,,-99.99,,2013-10-05 19:42:00,
2013-10-05 15:52:00,69.0,-99.9,30.08,South,183,6.0,14.0,-999,0.00,,,-99.99,,2013-10-05 19:52:00,
2013-10-05 16:42:00,69.0,-99.9,30.08,South,183,6.0,14.0,-999,0.00,,,-99.99,,2013-10-05 20:42:00,
2013-10-05 17:52:00,67.0,-99.9,30.09,South,183,8.0,11.0,-999,0.00,,,-99.99,,2013-10-05 21:52:00,
2013-10-05 18:43:00,67.0,-99.9,30.09,South,183,8.0,11.0,-999,0.00,,,-99.99,,2013-10-05 22:43:00,
2013-10-05 18:52:00,66.0,-99.9,30.09,South,183,5.0,11.0,-999,0.00,,,-99.99,,2013-10-05 22:52:00,
2013-10-05 19:43:00,66.0,-99.9,30.09,South,183,5.0,11.0,-999,0.00,,,-99.99,,2013-10-05 23:43:00,
2013-10-05 19:52:00,67.0,-99.9,30.10,South,183,4.0,10.0,-999,0.00,,,-99.99,,2013-10-05 23:52:00,
2013-10-05 20:43:00,67.0,-99.9,30.10,South,183,4.0,10.0,-999,0.00,,,-99.99,,2013-10-06 00:43:00,
2013-10-05 20:52:00,67.0,-99.9,30.11,South,183,6.0,9.0,-999,0.00,,,-99.99,,2013-10-06 00:52:00,
2013-10-05 21:42:00,67.0,-99.9,30.11,South,183,6.0,9.0,-999,0.00,,,-99.99,,2013-10-06 01:42:00,
2013-10-05 21:52:00,67.0,-99.9,30.12,South,183,3.0,7.0,-999,0.00,,,-99.99,,2013-10-06 01:52:00,
2013-10-05 22:42:00,67.0,-99.9,30.12,South,183,3.0,7.0,-999,0.00,,,-99.99,,2013-10-06 02:42:00,
2013-10-05 22:52:00,67.0,-99.9,30.12,South,183,5.0,11.0,-999,0.00,,,-99.99,,2013-10-06 02:52:00,
2013-10-05 23:45:00,67.0,-99.9,30.12,South,183,5.0,11.0,-999,0.00,,,-99.99,,2013-10-06 03:45:00,
2013-10-05 23:52:00,67.0,-99.9,30.11,South,183,5.0,7.0,-999,0.00,,,-99.99,,2013-10-06 03:52:00,